Last updated on Jan. 5, 2021, 12:02 a.m. UTC
1 43549U 98067NX 21004.26885481 .06549442 12287-4 57988-3 0 9992 2 43549 51.6198 324.6215 0004053 189.4390 170.6560 16.38331810141630
Satellite is not in orbit.